This demonstration page uses our WeatherBlox Daily Observations layout. Learn more.

Left ArrowRight Arrow

34.74481, -87.66753

Hourly Observations for April 9, 2021

Temp ( °F °C ) Dew Point ( °F °C ) Humidity (%) Winds ( mph kmh ) Pressure ( in mb ) Visibility ( mi km ) Precip ( " mm )
12:53 am 00:53 Clear 54 12.2 48 8.9 80 80 S 3 6 29.83 1010 10 16 0.00 0.00
1:53 am 01:53 Clear 56 13.3 48 8.9 75 75 Calm 29.83 1010 10 16 0.00 0.00
2:53 am 02:53 Clear 53 11.7 47 8.3 80 80 ESE 3 6 29.82 1010 10 16 0.00 0.00
3:53 am 03:53 Clear 53 11.7 47 8.3 80 80 E 3 6 29.82 1010 10 16 0.00 0.00
4:53 am 04:53 Clear 54 12.2 47 8.3 77 77 ENE 3 6 29.83 1010 10 16 0.00 0.00
5:53 am 05:53 Clear 54 12.2 47 8.3 77 77 Calm 29.83 1010 10 16 0.00 0.00
6:53 am 06:53 Sunny 54 12.2 46 7.8 75 75 E 3 6 29.85 1011 10 16 0.00 0.00
7:53 am 07:53 Sunny 61 16.1 50 10 67 67 SE 6 9 29.86 1011 10 16 0.00 0.00
8:53 am 08:53 Sunny 65 18.3 53 11.7 66 66 ESE 3 6 29.86 1011 10 16 0.00 0.00
9:53 am 09:53 Sunny 71 21.7 54 12.2 55 55 SE 8 13 29.87 1011 10 16 0.00 0.00
10:53 am 10:53 Sunny 76 24.4 57 13.9 52 52 ESE 7 11 29.85 1011 10 16 0.00 0.00
11:53 am 11:53 Partly Cloudy 80 26.7 55 12.8 42 42 SSW 8 13 29.84 1011 10 16 0.00 0.00
12:53 pm 12:53 Mostly Cloudy 81 27.2 55 12.8 41 41 S 9 15 29.84 1010 10 16 0.00 0.00
1:53 pm 13:53 Partly Cloudy 83 28.3 59 15 44 44 SSE 9 15 29.80 1009 10 16 0.00 0.00
2:53 pm 14:53 Partly Cloudy 83 28.3 59 15 44 44 SE 9 15 29.78 1009 10 16 0.00 0.00
3:53 pm 15:53 Mostly Cloudy 81 27.2 61 16.1 51 51 SSE 15 24 29.79 1009 10 16 0.00 0.00
4:53 pm 16:53 Sunny 79 26.1 58 14.4 49 49 SE 14 22 29.78 1009 10 16 0.00 0.00
5:53 pm 17:53 Partly Cloudy 75 23.9 59 15 58 58 SSE 20 31 29.80 1009 10 16 0.00 0.00
6:53 pm 18:53 Sunny 71 21.7 57 13.9 61 61 SE 13 20 29.80 1009 10 16 0.00 0.00
7:53 pm 19:53 Clear 70 21.1 58 14.4 66 66 SSE 13 20 29.85 1011 10 16 0.00 0.00
8:53 pm 20:53 Clear 69 20.6 57 13.9 66 66 ESE 7 11 29.80 1009 10 16 0.00 0.00
9:00 pm 21:00 Clear with Nearby Thunderstorms 68 20 57 13.9 68 68 ESE 8 13 29.80 1009 10 16 0.00 0.00
9:15 pm 21:15 Partly Cloudy 68 20 57 13.9 68 68 SSE 12 19 29.79 1009 10 16 0.00 0.00
9:24 pm 21:24 Mostly Cloudy with Thunderstorms 68 20 57 13.9 68 68 SSE 12 19 29.81 1009 10 16 0.00 0.00
9:53 pm 21:53 Cloudy with Thunderstorms 68 20 57 13.9 68 68 Calm 29.85 1011 10 16 0.00 0.00
10:07 pm 22:07 Cloudy 66 18.9 58 14.4 75 75 Calm 29.86 1011 10 16 0.00 0.00
10:32 pm 22:32 Cloudy 66 18.9 60 15.6 81 81 Calm 29.88 1012 10 16 0.01 0.25
10:39 pm 22:39 Cloudy with Nearby Thunderstorms 67 19.4 60 15.6 79 79 Calm 29.89 1012 10 16 0.01 0.25
10:53 pm 22:53 Cloudy with Light Rain 66 18.9 60 15.6 81 81 SSE 3 6 29.88 1012 7 11 0.03 0.76
11:06 pm 23:06 Cloudy with Nearby Thunderstorms 66 18.9 60 15.6 81 81 Calm 29.88 1012 10 16 0.01 0.25
11:53 pm 23:53 Cloudy with Thunderstorms 65 18.3 60 15.6 84 84 ESE 5 7 29.88 1012 6 10 0.10 2.54

Powered by AerisWeather